GFSNE_con_3kmhel_000.txt.gz
Helicity
142 132 149 155 171 163 157 165 179 194 199 192 253 248 314 348 303 279 277 193 216 171 155 89 98 121 100 81 105 125 155 255 213 165 171 169 146 130
175 192 187 176 172 165 168 167 164 174 177 184 198 200 243 330 283 282 265 184 203 170 167 160 153 127 140 149 134 206 334 297 232 195 180 157 145 147
146 139 150 152 147 142 138 135 132 125 134 79 122 131 193 260 269 305 274 276 279 181 100 176 211 164 145 227 312 341 326 255 201 183 167 164 147 154
89 108 110 103 108 91 69 70 77 87 95 94 60 90 124 177 260 302 352 371 353 205 135 156 226 172 209 252 449 372 350 222 221 178 179 180 139 116
85 81 74 66 50 55 82 97 83 81 88 104 81 74 90 124 207 276 284 332 325 237 212 133 157 220 259 394 388 516 471 351 285 201 165 152 136 96
84 73 49 26 31 45 69 79 87 101 101 104 101 81 66 67 147 141 186 236 249 302 174 196 174 160 266 396 446 513 465 416 231 186 146 136 151 108
107 90 39 39 31 40 76 69 95 81 56 65 59 44 115 103 66 109 198 190 198 185 291 222 291 404 431 404 481 580 301 386 225 155 89 107 125 101
140 102 72 48 31 108 103 103 113 112 91 76 78 83 63 63 35 73 91 137 184 357 310 323 462 625 607 630 562 573 375 264 164 127 87 102 94 86
179 143 114 89 80 81 85 79 79 79 83 105 97 82 74 94 98 77 59 106 162 373 272 359 451 499 546 694 495 419 248 188 133 101 72 72 92 123
123 69 92 116 48 90 87 66 66 73 56 72 88 93 103 111 115 86 74 80 250 459 453 406 375 443 639 504 447 267 196 136 79 46 42 85 116 121
105 119 143 133 64 97 66 52 83 99 57 44 39 65 73 71 86 125 108 142 183 330 485 441 488 578 495 463 374 189 130 46 25 52 80 97 104 102
104 97 98 106 96 85 70 74 74 48 15 -9 -12 25 65 83 100 95 83 117 182 268 327 525 518 486 354 379 299 231 86 24 46 60 74 80 107 151
86 74 54 28 54 67 76 84 39 43 29 -1 16 17 22 29 54 45 49 75 169 326 269 443 474 492 427 343 236 137 95 139 171 120 102 116 87 99
81 59 55 40 62 61 56 68 76 44 27 27 50 11 6 17 53 33 47 120 216 192 233 369 397 560 469 326 211 167 167 178 204 231 199 151 114 86
57 42 32 41 37 35 56 84 64 36 31 39 33 0 20 -2 43 28 147 248 336 393 425 329 312 354 231 159 139 158 204 154 150 149 131 124 132 144
19 7 18 22 24 31 32 42 28 28 33 22 -7 -21 0 -28 14 60 146 200 287 312 253 190 203 162 126 145 152 171 173 150 131 113 120 129 132 125
-9 7 4 -24 -19 3 34 20 16 36 -8 -5 -43 -33 -27 11 66 119 158 145 130 121 134 135 119 115 120 106 139 113 117 112 104 143 124 106 88 86
-22 3 -24 -31 -15 3 17 34 29 32 -24 -31 -44 -21 -13 27 68 122 112 64 61 43 47 40 64 92 102 100 71 104 96 99 107 103 99 95 63 77
-28 -10 -46 -33 -5 5 -4 16 23 19 -18 -47 -35 -4 -2 43 86 140 108 42 24 48 43 49 50 68 98 101 65 50 95 94 93 86 82 87 80 118
-10 -49 -37 -15 -5 6 -3 27 33 13 -34 -46 -24 -21 -1 51 130 82 57 44 46 37 41 46 50 49 63 55 57 53 18 63 66 79 96 96 83 61
-51 -45 -13 -4 1 -2 29 33 30 8 -34 -28 -17 -13 47 128 112 61 45 18 30 15 31 30 16 33 46 61 79 73 60 39 53 96 81 70 76 92
-76 -30 -4 -13 -14 13 45 37 29 0 -16 18 40 112 160 159 104 56 36 4 -20 -2 9 4 21 44 53 60 56 61 77 63 7 -15 22 58 70 72
-53 -23 -1 0 6 44 66 45 28 9 3 70 135 166 149 82 25 -20 -30 -28 -13 9 13 20 22 37 39 43 33 50 52 62 57 49 42 12 18 -9

GFSNE_con_3kmhel_003.txt.gz
Helicity
154 162 172 159 152 155 167 180 174 154 105 83 102 102 117 122 147 184 199 185 209 186 126 108 114 93 133 177 154 178 150 116 103 126 176 265 239 155
124 139 141 132 117 81 62 69 81 107 106 64 59 64 67 77 89 152 176 194 202 191 192 156 140 135 139 120 133 180 233 165 117 176 227 235 227 188
78 90 104 102 93 88 74 66 64 56 105 57 70 63 71 75 70 110 164 192 190 149 181 181 170 180 108 120 116 159 213 192 148 191 296 308 252 191
60 80 79 80 77 55 35 40 53 70 87 101 40 19 27 47 76 86 110 127 174 146 140 136 149 196 164 130 111 125 155 195 215 291 351 346 293 237
77 92 93 93 65 46 38 31 32 39 61 89 104 85 45 47 50 67 123 139 145 125 149 133 122 111 95 96 65 125 129 259 381 440 522 394 363 218
88 113 110 105 97 77 75 81 59 65 57 65 77 67 46 29 66 28 -8 68 95 147 104 104 116 126 82 21 49 110 220 308 650 459 588 558 505 343
95 88 85 81 74 82 127 91 79 67 65 37 36 34 32 0 12 26 29 -16 -20 48 67 66 149 161 152 63 74 168 296 301 237 773 664 544 413 403
58 52 57 39 38 77 114 101 88 104 78 45 22 26 30 41 23 24 35 20 15 36 74 42 132 114 147 167 117 231 458 548 625 616 543 565 317 294
77 74 63 72 97 104 86 90 85 68 82 59 37 42 66 91 64 37 41 57 61 58 61 55 143 138 169 213 183 353 609 791 597 582 369 281 259 235
117 108 114 96 90 86 79 79 55 26 57 84 51 48 38 24 58 67 88 92 82 79 126 72 136 209 303 297 251 425 688 681 556 346 231 241 237 131
118 105 80 57 39 55 59 63 54 60 53 36 16 12 36 58 52 71 87 98 77 54 97 155 172 308 347 377 409 508 524 412 323 294 231 165 95 70
110 76 32 42 29 33 47 64 102 83 43 -65 -67 -39 -12 33 56 65 64 90 93 26 116 252 284 325 236 372 577 623 603 347 251 138 102 68 59 136
90 64 61 19 22 29 24 31 40 26 -10 -33 -45 -66 -31 15 51 68 84 92 76 35 45 215 323 383 402 329 488 520 352 334 207 120 54 52 58 134
91 83 61 18 15 10 26 34 40 29 1 -16 -59 -63 -24 9 24 48 51 7 -15 -41 -29 213 252 463 471 386 374 394 387 283 176 176 200 116 58 95
104 57 21 -2 8 11 6 37 38 21 11 -40 -44 -29 -6 -7 -13 -31 -52 -52 42 163 231 304 252 353 363 367 379 380 250 160 155 196 186 183 180 169
103 43 -18 -9 23 -11 -20 1 2 8 -22 -40 -34 -23 -62 -77 -70 -83 -79 -4 127 208 240 277 272 255 233 179 163 157 145 124 129 146 167 159 128 106
67 8 -56 16 8 -10 -17 -3 17 21 -15 -41 -28 -59 -104 -87 -69 -86 -30 80 143 141 109 125 195 165 133 94 126 128 124 117 121 162 165 139 104 112
79 21 2 30 -32 -44 -15 19 52 47 -8 -4 -14 -70 -88 -82 -54 -28 -7 82 48 41 29 83 95 107 123 164 114 104 111 124 125 126 127 122 132 124
91 56 68 -21 -59 -33 10 24 51 60 28 -15 -49 -93 -80 -45 -17 -4 45 83 50 26 45 60 78 53 71 87 85 80 90 94 111 115 115 127 127 106
84 49 -70 -65 -47 1 28 38 83 65 5 -31 -42 -63 -33 -11 14 52 88 86 47 29 29 27 33 66 61 63 64 58 61 99 108 108 94 83 74 80
28 30 -81 -49 -3 27 36 72 83 54 -19 -4 2 15 39 61 92 86 53 24 31 11 -7 14 38 44 37 56 83 82 68 37 61 89 95 103 105 102
-89 -74 -50 -12 23 28 57 93 77 34 0 56 77 69 88 95 72 42 46 30 -7 -16 1 7 8 29 52 67 70 58 47 53 31 12 29 50 89 83
-52 -47 -14 21 31 55 87 102 66 26 54 146 96 102 120 119 66 -8 -21 -8 -15 -6 -2 8 14 26 27 29 32 43 46 49 55 54 49 42 8 43

GFSNE_con_3kmhel_006.txt.gz
Helicity
96 104 117 116 137 159 178 202 220 190 113 50 67 62 79 68 52 45 56 46 38 41 48 83 107 143 126 131 176 133 72 64 114 133 143 136 143 162
75 79 76 98 108 124 146 152 157 163 164 97 23 26 11 28 31 41 24 15 41 43 63 67 66 103 154 139 126 137 143 105 107 125 127 145 135 167
60 61 68 82 87 100 103 104 95 93 115 98 70 14 28 21 17 34 39 29 25 29 65 72 90 72 74 104 114 80 113 117 113 87 103 128 165 189
39 28 31 46 55 51 52 40 40 35 62 42 36 12 25 14 21 20 14 35 38 47 30 65 71 108 79 75 90 105 91 125 88 64 88 125 195 243
52 65 56 36 34 22 25 25 4 55 24 28 46 17 27 12 5 31 20 -2 43 68 27 37 41 197 112 95 84 59 82 98 69 81 130 92 243 307
101 66 37 32 29 28 4 15 30 28 -5 -19 -5 22 13 -12 -17 -13 -24 19 -3 38 62 53 55 -50 61 52 63 44 46 87 91 59 120 97 189 355
111 71 55 45 47 61 67 50 60 64 70 85 82 53 61 58 33 12 21 21 46 26 31 69 52 57 76 53 46 64 58 67 53 88 90 124 167 602
106 73 63 42 39 68 58 71 79 92 88 86 94 99 100 98 86 61 69 26 -37 -4 -3 17 18 7 -11 29 33 17 81 52 55 51 68 174 530 736
105 103 97 91 72 33 7 25 37 36 40 71 110 127 103 91 63 -6 20 27 45 29 19 50 38 39 24 51 60 87 63 56 57 108 266 430 809 791
116 114 126 115 54 40 36 34 16 24 57 86 103 115 94 64 -5 10 5 -5 -12 -9 37 47 17 26 53 85 57 49 15 34 99 329 620 841 766 760
126 130 110 75 42 27 46 23 23 29 7 13 27 31 7 -4 12 4 -0 -4 -61 -70 -20 22 30 53 92 59 42 8 28 269 428 595 653 586 642 409
126 111 47 76 34 39 30 37 16 -10 -3 -10 -25 -12 16 20 -12 -8 20 14 -25 -76 10 -6 10 19 -36 -16 53 269 267 393 417 488 524 436 330 320
128 116 137 64 70 42 17 71 17 -42 -41 -34 -18 5 9 -7 -9 -27 11 38 -11 -16 -9 4 -5 30 91 74 156 418 511 561 600 556 300 200 164 309
108 139 154 129 68 20 59 -24 -18 -15 -45 -21 -16 -2 -25 -36 -43 -35 -21 -7 -15 -69 -43 -30 -27 -7 114 154 173 364 462 491 450 387 265 157 158 146
113 104 142 51 4 37 32 -2 -10 -14 -37 -0 -0 -8 -34 -29 -26 -29 -48 -75 -117 -108 -65 -67 -58 77 172 124 226 347 478 444 389 314 308 286 221 149
97 139 100 50 25 48 65 90 86 -22 -21 16 9 -3 -17 -42 -33 -75 -83 -83 -115 -121 -45 52 109 123 173 156 225 355 407 371 314 290 223 228 263 259
74 124 104 70 66 86 103 93 32 40 51 45 7 -17 -23 -67 -84 -79 -64 -73 -77 -56 11 101 134 156 154 221 240 304 276 163 151 158 205 204 166 141
98 130 115 87 91 103 -0 56 83 92 87 50 8 -22 -29 -57 -52 -34 -34 -32 -25 41 46 83 91 106 127 154 93 81 99 101 145 127 118 123 107 114
95 122 83 90 42 12 39 80 124 141 108 34 13 -23 3 -22 -2 18 -0 -8 27 48 53 60 78 75 73 48 58 52 50 45 82 108 119 131 116 96
81 77 53 9 19 44 85 110 149 136 73 23 -15 55 60 26 46 40 29 41 52 34 41 77 95 83 45 33 16 37 62 75 90 100 110 135 147 120
92 23 4 31 51 87 114 140 150 121 30 34 110 154 85 65 62 61 62 38 48 54 31 -1 4 39 30 38 76 80 77 76 83 89 97 113 105 87
25 28 48 59 87 123 143 152 141 89 88 160 194 176 87 71 74 66 51 25 -11 -34 -25 3 19 26 32 40 63 72 77 79 76 64 73 79 64 70
29 51 66 87 122 143 154 158 111 125 199 207 235 146 80 53 18 -9 -14 -13 -9 -6 -4 -0 14 22 29 43 52 49 51 56 54 54 48 36 43 106

GFSNE_con_3kmhel_009.txt.gz
Helicity
54 65 54 54 56 72 85 140 164 152 108 57 52 35 78 81 16 14 14 18 74 95 87 86 96 88 77 70 65 96 63 51 49 144 122 158 158 124
60 60 51 66 78 82 106 116 136 178 161 115 57 67 96 19 -15 -10 1 19 18 34 49 62 81 83 75 77 91 102 103 82 76 70 92 141 74 87
60 68 76 97 101 85 86 86 102 106 121 122 87 78 42 -5 -44 -36 -2 12 18 35 66 108 113 85 114 88 81 101 100 96 80 84 90 193 111 88
125 107 116 99 81 65 58 39 22 -11 27 48 76 25 -2 -35 -41 -40 -35 -9 28 28 16 51 104 101 81 101 122 115 124 134 95 91 72 59 69 135
130 123 113 108 96 81 63 44 42 40 43 63 65 30 -4 -13 -25 -28 -32 -3 17 3 12 55 127 141 93 103 129 165 124 143 131 82 79 77 45 79
121 121 114 96 88 76 75 70 75 50 28 35 35 31 23 16 30 36 19 50 49 66 69 75 83 126 174 115 121 112 71 158 91 98 88 83 71 62
132 118 116 105 88 106 126 105 94 106 101 73 71 63 53 56 82 87 98 85 100 113 94 109 111 104 139 154 162 137 102 25 52 67 88 70 82 43
120 111 122 106 104 67 57 43 56 90 85 71 53 57 45 54 72 76 136 113 56 22 29 37 48 97 85 65 46 68 54 63 112 90 65 78 46 68
122 126 130 107 68 80 49 40 74 43 55 96 87 79 35 35 25 42 26 -1 24 31 -15 -13 33 62 144 122 116 112 114 115 119 109 73 61 71 41
108 95 84 87 74 64 73 101 78 75 83 91 94 100 85 27 14 3 -28 -9 10 15 -2 1 6 55 43 79 110 116 98 105 121 108 93 63 57 34
97 83 77 79 57 17 71 89 71 94 55 34 32 17 4 11 1 -19 -2 -11 -31 -22 2 5 -10 -7 7 65 75 69 93 90 89 100 96 90 211 454
98 81 54 54 37 88 131 92 82 72 77 15 36 34 17 12 17 -10 -18 -28 -33 -16 -2 15 -16 -37 -71 -14 21 47 100 71 42 114 229 452 596 693
116 111 117 45 83 122 59 85 80 53 52 71 13 6 9 -5 -24 -40 -36 -19 -1 1 -9 -6 14 9 -5 28 11 28 266 256 279 296 353 541 535 550
111 133 115 72 53 48 44 26 14 32 99 69 -26 -11 -16 -10 -14 -18 -29 1 13 1 -16 8 13 2 5 17 31 58 228 464 441 401 441 368 357 343
129 104 58 35 55 69 23 9 26 109 36 -9 5 12 -9 3 1 -26 -31 -9 -26 -23 -12 2 -8 8 -0 21 54 67 186 301 366 378 328 281 258 271
113 106 75 55 69 53 59 81 105 24 -13 16 9 14 1 -28 -59 -60 -47 -36 -26 -34 -66 -33 -13 -11 21 40 75 93 164 238 324 333 359 351 259 242
87 126 114 81 72 74 88 95 48 41 48 29 9 -4 -25 -58 -34 -0 6 1 -6 -24 -27 -12 30 60 53 73 112 155 192 277 301 325 347 350 324 251
111 109 92 78 80 60 48 74 89 89 72 65 35 -20 -15 37 81 75 34 19 -3 4 17 28 75 84 67 161 212 201 260 271 271 271 285 279 270 272
107 104 91 15 57 68 78 92 132 136 99 47 34 84 109 129 131 109 69 30 17 20 32 47 63 97 90 74 141 123 112 143 142 174 156 165 176 116
100 96 43 65 78 82 108 127 160 133 75 113 136 155 182 197 134 93 40 39 41 49 81 103 101 95 62 48 30 74 74 78 91 100 80 69 83 69
99 54 69 83 92 110 142 172 157 134 155 179 183 181 192 95 61 49 69 72 77 92 92 69 47 46 22 20 14 37 89 74 59 60 81 102 108 108
90 69 88 98 118 140 176 171 174 233 244 231 222 217 161 99 72 44 29 23 11 13 6 10 24 8 12 19 44 43 48 80 89 91 91 77 73 66
69 85 104 126 149 171 175 193 241 278 289 255 213 158 70 35 25 19 14 6 3 -2 -4 -6 3 26 40 47 47 53 60 60 61 71 91 102 115 89

GFSNE_con_3kmhel_012.txt.gz
Helicity
99 102 127 137 142 151 195 213 238 258 236 162 112 82 93 118 69 169 164 71 40 60 57 82 91 100 94 96 103 90 58 42 11 19 40 10 69 17
123 138 146 150 169 192 186 182 185 203 239 200 143 79 71 57 108 132 74 19 7 32 73 64 52 82 90 87 85 63 63 72 39 48 34 77 89 44
117 126 135 133 180 180 172 165 173 161 215 200 157 104 72 50 40 26 10 0 -3 -8 32 63 78 82 112 98 80 76 55 90 87 104 49 63 78 63
124 147 155 178 175 160 162 163 159 138 164 181 148 138 93 81 72 52 26 21 -1 -23 -1 29 52 63 90 114 108 78 73 72 97 132 96 72 103 92
145 155 159 159 162 171 175 168 159 154 150 159 162 142 133 114 96 78 61 12 10 12 13 27 21 40 46 63 105 91 85 73 86 113 129 113 93 122
155 159 155 150 155 156 152 133 122 123 120 130 133 120 107 93 100 96 40 37 16 18 58 34 86 74 89 107 131 114 163 172 147 129 143 154 120 98
146 143 136 132 89 90 131 110 99 110 123 115 113 109 96 89 92 88 67 27 -8 -13 23 21 34 70 111 172 129 166 131 140 154 157 160 135 182 136
159 134 126 102 102 80 58 48 57 79 70 87 119 127 101 122 115 107 96 47 -8 14 10 -20 24 30 84 122 114 109 138 139 145 133 135 122 93 75
146 134 131 121 100 99 78 53 57 40 51 100 126 123 123 123 106 98 65 22 -30 -24 -1 13 15 25 41 55 101 129 177 154 129 108 103 100 59 63
130 122 108 96 91 81 81 88 96 104 96 112 108 116 115 100 66 44 -12 -13 -18 -11 -2 45 -25 -18 17 34 99 156 207 160 97 85 101 90 61 31
116 97 90 95 64 34 61 105 103 105 64 37 29 21 16 10 29 21 -43 -54 -36 -9 -14 -36 -35 -3 -7 0 80 60 121 105 150 145 117 80 48 34
99 102 79 86 49 45 81 90 86 69 76 41 49 48 29 32 5 4 -51 -60 -57 -34 -21 -15 -14 -3 -24 14 35 49 79 149 208 154 83 81 77 146
142 136 131 69 53 32 30 83 94 60 41 63 72 78 70 55 1 -42 -52 -63 -47 -15 -54 -41 -24 4 33 60 41 83 79 183 238 240 216 184 230 250
134 149 124 62 40 35 49 49 19 33 78 93 80 22 -21 -30 -35 -41 -23 -20 -21 -6 6 -17 -34 0 17 33 67 80 69 159 246 239 304 303 321 447
147 125 68 50 44 53 39 14 28 77 57 15 14 9 -11 -5 3 -10 -20 -17 -6 17 1 -36 13 3 14 41 61 66 106 162 295 264 341 413 498 512
129 136 85 64 49 43 40 53 32 -8 -2 15 18 19 6 1 -15 -16 -38 -1 21 4 -37 58 3 5 19 30 51 71 87 141 316 379 286 300 311 379
112 111 107 87 74 62 52 11 21 26 26 -5 -13 -11 22 44 47 37 66 92 40 1 -13 -14 -12 21 43 55 55 67 88 131 234 199 231 307 306 298
110 107 94 80 46 11 27 49 70 72 17 4 55 79 80 97 139 168 138 71 20 15 9 12 54 62 32 83 165 117 164 222 227 236 207 217 285 292
96 96 87 38 19 35 51 82 111 73 76 108 121 104 124 146 168 132 54 44 35 42 63 64 71 66 59 120 188 248 201 245 239 310 236 212 255 339
88 85 31 19 35 60 91 107 91 136 150 165 151 159 152 168 145 93 77 60 76 121 124 120 74 60 44 74 141 196 193 203 229 249 239 250 243 263
85 22 25 33 57 94 126 118 167 186 177 191 194 174 170 149 104 100 108 124 124 114 103 90 96 92 96 87 19 37 87 106 84 84 81 119 114 119
4 35 47 62 98 124 136 199 216 227 223 198 170 147 123 85 78 64 46 41 27 34 35 31 30 27 22 -10 2 32 62 60 67 81 75 78 48 9
20 48 80 106 125 147 221 224 216 219 197 162 130 103 84 64 52 45 41 26 18 9 3 -6 -4 8 23 22 30 45 60 71 72 74 94 115 76 83

GFSNE_con_3kmhel_015.txt.gz
Helicity
119 110 122 164 164 215 203 246 280 238 233 214 186 154 138 131 99 121 120 82 114 137 96 64 52 68 91 110 123 146 142 127 81 81 66 11 14 -6
118 134 142 161 177 205 214 281 308 304 305 248 200 155 124 125 105 93 104 89 60 54 47 45 79 73 96 122 130 114 121 131 125 99 104 78 53 8
122 134 139 147 194 241 256 250 250 233 260 224 193 160 123 98 103 101 86 89 90 52 32 30 26 27 61 103 97 101 114 132 118 105 118 155 106 65
127 140 154 197 199 234 238 221 231 204 187 159 166 143 124 99 95 93 76 63 65 52 38 30 32 18 24 69 133 126 122 123 128 87 63 78 83 91
139 162 163 166 202 216 209 214 180 165 159 173 184 156 139 113 93 82 62 40 60 63 60 59 43 20 13 32 101 115 113 114 116 118 109 74 79 76
144 137 131 174 187 197 173 156 154 158 156 167 178 150 113 81 100 107 57 53 89 93 52 46 31 38 19 32 41 101 120 120 127 116 104 124 133 82
109 108 145 151 101 104 161 162 141 155 164 166 163 134 128 106 90 91 113 102 113 91 94 87 62 66 19 3 -5 37 66 117 133 147 135 117 135 115
93 123 145 118 137 112 97 70 89 134 130 165 205 178 141 129 130 131 135 141 84 89 70 76 68 35 34 22 15 43 77 82 129 108 93 118 141 104
99 139 151 160 136 133 93 88 101 51 77 125 162 158 132 124 116 122 127 120 115 101 84 13 65 7 1 -6 9 60 54 83 133 155 96 54 79 102
115 141 148 145 127 102 127 125 133 123 106 132 161 140 131 116 108 93 65 42 74 64 -14 17 -58 -15 -62 -18 3 46 106 107 117 132 184 188 118 88
140 142 121 126 91 93 127 120 101 107 92 68 52 32 13 9 30 35 13 -17 49 -10 -37 -73 -54 -69 -66 15 43 69 88 82 113 112 137 128 43 15
148 135 86 102 87 87 106 107 109 105 93 55 63 62 59 64 20 -2 -27 -27 0 4 -23 -64 -48 -40 1 22 24 37 32 77 130 139 98 55 30 57
160 150 144 89 69 62 48 104 98 66 54 74 43 48 52 27 -1 -23 -47 -69 -34 16 -35 -66 -34 7 16 101 117 129 123 100 202 233 90 -11 -2 32
151 149 151 81 64 44 71 32 11 22 23 16 44 45 8 -14 -30 -33 -7 9 1 1 2 3 11 27 40 35 113 122 157 209 114 211 239 221 149 151
136 108 99 69 52 79 35 10 -12 -3 15 46 33 18 32 3 27 47 58 56 48 64 71 88 66 -30 -32 41 96 124 165 170 124 196 295 367 420 378
110 127 85 64 59 45 53 23 11 9 3 7 -6 12 44 49 69 76 102 140 124 121 -11 -27 -39 -35 -12 48 77 133 143 125 157 209 257 378 511 528
91 106 103 92 90 61 11 26 58 74 -10 8 27 57 81 88 109 143 190 146 53 -12 -19 -27 -13 -15 -12 47 61 65 100 115 146 165 197 246 345 396
93 104 99 84 0 7 41 68 107 24 45 89 115 129 135 132 167 177 139 75 43 31 50 33 20 15 31 37 151 119 147 162 173 176 169 188 279 302
98 100 0 -7 15 43 72 80 71 118 138 151 168 161 167 184 164 152 55 63 63 102 128 115 92 84 64 96 151 247 202 218 196 235 254 251 225 265
69 -9 10 21 44 73 101 104 155 173 169 165 149 147 148 155 161 118 101 110 113 116 107 88 100 114 113 126 175 224 195 206 192 212 274 336 341 306
12 28 30 47 81 101 133 166 173 177 148 163 171 153 145 128 117 86 87 85 87 101 110 105 121 130 140 157 160 261 226 209 206 203 227 307 348 344
8 44 64 84 100 142 172 180 180 179 164 148 132 125 122 118 98 70 63 66 60 50 42 42 55 79 62 34 40 112 161 162 170 171 164 140 144 194
45 75 94 101 146 183 186 169 163 166 146 144 151 144 117 64 71 83 76 59 52 20 -1 -12 -11 13 21 4 10 32 50 69 84 86 82 59 36 72

GFSNE_con_3kmhel_018.txt.gz
Helicity
131 131 139 145 156 166 185 188 204 198 204 204 196 160 177 156 127 136 114 72 67 47 55 49 70 68 75 67 79 104 111 108 142 186 174 107 47 24
129 128 131 144 156 168 190 216 233 251 245 216 211 190 152 151 147 112 123 59 51 43 38 43 47 42 51 63 76 63 72 93 101 112 125 114 117 68
124 130 136 137 161 186 187 211 229 241 275 247 216 170 143 128 112 108 110 113 110 27 44 40 37 31 20 28 43 60 60 86 119 104 103 116 117 143
131 132 133 153 148 158 194 184 222 218 234 218 208 192 161 133 131 127 108 88 100 70 63 47 34 15 64 55 45 38 36 50 95 105 150 123 143 103
132 131 128 128 134 151 168 185 194 199 199 224 229 213 194 194 192 154 116 112 110 60 48 37 47 48 41 36 49 50 41 47 49 87 207 120 121 81
124 121 109 111 130 132 153 159 179 203 207 228 232 229 186 191 168 184 105 79 65 79 82 43 34 29 33 51 52 55 63 62 71 67 119 107 89 107
118 107 107 99 67 86 150 162 171 181 202 205 231 179 187 147 153 148 115 46 91 104 96 118 66 77 100 58 54 46 67 73 74 70 70 110 97 102
115 110 116 106 118 106 102 70 91 152 161 182 155 163 150 160 170 147 119 119 70 116 76 85 99 113 113 93 22 49 46 81 71 58 66 96 91 66
114 119 134 153 121 134 95 84 116 103 107 145 154 164 157 153 129 129 127 128 114 82 102 25 126 121 96 49 12 13 20 34 63 76 68 79 97 93
126 132 136 137 119 90 103 131 146 128 125 134 136 122 114 92 71 44 -42 -16 52 88 58 44 24 13 -13 -5 -44 -17 8 42 57 67 71 79 114 86
139 139 135 120 72 51 88 123 122 136 93 60 39 33 24 23 11 -24 22 -3 36 31 -29 5 6 15 -5 36 93 78 57 72 49 15 44 58 64 85
154 158 88 96 51 35 90 107 117 100 97 65 78 48 60 76 23 11 -18 11 1 8 43 3 -5 12 70 111 98 113 74 118 80 42 41 46 74 34
168 159 137 61 43 43 38 93 88 56 32 -44 19 91 106 89 67 55 48 23 21 35 117 -23 -6 26 39 81 161 181 115 116 112 115 100 30 27 62
145 140 143 45 38 36 50 21 -5 -42 -47 66 89 51 4 43 62 83 113 133 149 138 150 114 81 86 88 120 158 143 141 165 233 182 179 126 -19 -33
123 101 48 50 45 50 28 -8 -17 35 92 85 39 61 75 103 133 146 155 153 161 177 118 69 37 -11 -9 68 129 181 163 227 192 117 243 254 262 166
98 106 77 52 41 43 10 20 91 85 16 41 89 113 131 141 154 146 174 176 155 75 75 19 -14 -4 17 72 163 169 165 166 138 149 187 270 329 240
69 102 75 85 52 26 39 99 86 50 93 110 113 138 152 159 159 158 157 97 89 87 83 74 40 29 34 82 85 99 127 104 122 146 230 235 414 382
93 96 -8 -9 23 46 90 102 126 142 138 127 135 152 154 148 143 122 120 101 95 96 109 98 77 72 40 72 117 152 137 138 149 158 160 156 228 325
13 7 8 23 57 101 112 157 183 170 138 139 158 155 156 160 124 146 148 106 112 120 101 96 112 96 96 122 196 157 140 178 145 190 216 230 193 192
60 2 29 61 102 123 187 174 159 152 141 146 135 152 164 172 176 158 138 115 113 118 108 68 106 140 147 163 234 184 128 196 182 185 212 246 251 159
-6 33 71 105 126 192 182 159 147 125 94 125 153 155 163 161 148 96 96 68 64 116 97 83 100 97 110 147 165 233 230 189 190 233 247 271 272 279
37 81 100 104 182 184 169 161 147 132 138 148 165 160 152 120 79 95 85 73 73 70 48 76 85 73 90 98 147 186 200 195 191 208 254 228 178 214
84 96 110 170 194 181 170 154 140 137 157 162 185 194 143 77 57 64 56 39 36 11 -10 -4 34 27 44 75 98 101 122 154 165 176 186 129 162 205

GFSNE_con_3kmhel_021.txt.gz
Helicity
114 131 136 123 135 157 175 186 217 214 199 156 142 108 125 137 124 111 116 86 55 54 52 65 67 66 54 101 95 96 65 63 52 75 77 89 95 122
130 135 135 137 149 151 172 191 196 217 244 167 140 137 139 141 126 108 130 51 54 41 50 51 42 28 47 33 43 38 74 70 64 57 45 24 59 128
116 151 138 133 148 158 165 181 195 212 219 179 169 150 137 150 142 129 97 113 138 37 32 46 46 31 49 36 32 39 50 44 46 62 65 57 72 76
135 138 141 150 147 146 168 172 188 188 198 174 182 170 170 164 119 104 83 110 129 83 87 55 40 31 25 31 42 47 68 61 72 72 72 94 96 39
130 140 142 133 137 156 163 164 161 150 170 193 204 219 202 156 138 180 127 119 113 69 59 28 28 18 21 39 60 61 63 70 80 66 67 38 50 50
134 140 132 129 137 134 141 147 162 164 163 194 203 202 176 175 162 119 112 133 140 123 79 50 13 26 33 29 32 28 36 45 39 41 67 89 63 35
144 144 130 101 86 104 145 141 135 150 179 183 186 185 115 96 101 133 172 129 119 131 113 115 102 116 98 53 39 21 25 35 40 53 60 69 60 39
154 147 158 103 96 70 74 61 67 128 129 155 150 137 123 129 148 182 167 130 107 108 141 118 125 121 123 122 35 3 28 44 41 51 58 86 93 80
162 157 148 130 92 121 79 53 81 67 50 116 130 136 133 150 152 96 90 113 145 153 66 78 155 93 144 72 8 -8 -14 -12 37 55 43 39 55 50
164 161 134 122 111 80 95 105 134 90 104 109 129 133 125 96 61 50 35 57 133 151 105 117 80 56 64 57 52 25 14 -8 -12 9 39 60 43 43
176 164 125 112 72 42 72 102 79 92 52 48 32 31 14 26 41 -13 55 20 34 82 152 26 57 57 51 125 182 101 46 56 35 15 -10 12 8 15
167 127 70 83 34 25 68 82 85 69 81 45 40 44 71 68 20 4 -0 32 55 75 178 18 41 34 -16 191 135 172 138 142 90 51 29 22 16 -41
148 137 126 45 38 39 44 67 49 -39 -73 53 111 108 67 57 67 81 106 131 150 197 219 76 129 115 101 160 192 198 196 199 121 94 81 73 75 77
131 133 127 53 38 26 19 -2 -11 -34 94 115 63 70 86 116 138 160 171 178 198 218 168 90 120 75 126 156 169 161 182 153 177 214 188 177 140 169
119 81 81 42 36 48 -5 -4 -19 57 47 76 93 119 129 163 183 191 185 186 179 148 103 127 149 103 77 156 169 207 193 137 185 181 137 171 109 77
78 103 68 51 -1 -1 22 45 20 29 43 66 100 146 166 174 160 154 178 178 154 150 116 93 60 78 108 123 162 213 189 140 183 197 237 226 193 140
58 85 88 68 20 50 70 59 83 86 82 95 123 168 186 178 163 133 158 156 157 154 160 106 84 86 112 147 222 220 184 163 172 230 226 261 242 216
86 101 -3 12 43 57 79 118 117 102 113 122 153 160 153 145 152 157 152 160 154 139 154 115 130 134 105 126 231 253 177 196 171 173 179 181 241 294
95 -43 4 55 68 104 132 122 128 129 116 131 155 150 138 142 113 143 142 128 131 123 124 112 147 164 160 196 236 171 159 198 188 171 145 155 167 196
-28 -0 64 70 103 133 140 137 135 131 117 147 135 150 154 148 134 118 100 107 110 82 95 95 116 136 156 195 245 260 192 193 201 186 217 185 178 147
6 59 67 96 130 149 154 147 132 118 73 102 146 151 144 128 131 89 74 54 46 73 46 75 133 105 109 133 161 215 209 230 149 166 189 210 219 265
63 70 95 117 145 169 171 163 163 162 169 190 181 149 139 120 110 71 50 52 44 48 40 66 47 88 133 120 123 146 168 175 149 141 106 90 154 165
86 107 131 146 171 177 166 153 156 167 178 203 216 217 185 161 52 17 20 15 10 -0 -2 22 44 61 69 91 77 105 147 172 151 191 174 124 126 139

GFSNE_con_3kmhel_024.txt.gz
Helicity
97 121 130 132 148 165 202 233 269 267 258 212 180 147 137 134 96 95 120 81 71 70 82 94 92 99 97 100 113 82 99 114 82 129 114 87 66 85
110 123 133 150 167 174 197 217 237 262 326 206 159 135 127 129 105 105 135 76 54 39 68 87 94 98 55 54 74 91 90 97 107 104 63 79 65 77
118 131 140 147 160 180 190 203 219 221 246 195 174 144 131 124 135 126 117 78 88 44 56 39 44 43 57 81 92 90 85 80 78 73 48 43 17 45
136 144 151 151 152 157 181 185 197 198 210 181 173 157 155 143 127 124 74 91 85 35 29 22 41 32 28 36 43 53 73 66 43 50 71 96 119 86
148 150 141 154 158 159 171 183 179 172 183 200 216 208 186 151 149 103 56 43 85 62 26 25 17 15 12 15 28 35 49 67 70 80 74 60 61 68
146 155 162 172 161 153 165 166 186 178 175 200 222 181 193 180 119 73 55 89 129 124 97 78 32 29 9 13 15 24 36 42 36 30 29 32 36 39
166 179 173 143 124 147 164 169 149 162 183 168 164 174 170 80 59 103 151 163 115 119 135 144 116 152 142 59 28 4 6 15 22 24 23 15 17 28
167 171 191 142 126 100 105 77 76 130 132 154 162 107 97 111 143 183 160 100 -23 117 148 141 163 149 133 126 29 5 -3 -12 -11 -15 16 26 27 32
170 184 188 174 139 130 79 42 75 52 110 111 114 126 108 137 97 91 115 152 170 145 133 51 159 151 179 99 46 38 10 -11 -16 -37 -62 39 38 39
175 183 174 143 111 87 100 129 129 110 85 98 119 102 80 67 57 28 7 40 132 166 83 97 167 172 147 145 118 75 22 -3 -6 3 -3 -29 -1 32
165 173 122 104 66 32 95 107 98 93 80 44 35 34 34 27 6 -20 15 42 112 163 141 135 189 162 123 211 189 107 30 41 45 38 34 0 -15 86
156 124 57 72 39 59 75 93 85 81 31 77 78 65 55 71 27 53 116 115 154 209 174 166 213 186 184 269 171 189 112 120 81 71 49 43 30 -57
144 128 110 47 45 36 34 89 47 -35 55 85 85 78 75 96 122 133 151 157 178 242 200 102 202 194 184 244 279 195 165 189 171 166 108 54 29 12
143 129 109 47 36 37 49 -8 -19 46 78 76 51 56 103 149 148 144 157 170 182 183 185 155 213 160 172 245 275 222 204 235 210 233 265 242 171 60
125 83 70 49 47 53 1 14 -31 27 46 41 61 116 136 150 170 180 176 169 169 169 174 136 144 132 136 208 274 294 273 214 154 268 291 226 174 46
81 103 68 61 -19 29 70 35 35 26 11 43 82 118 109 109 121 141 171 179 183 187 140 120 124 149 140 185 237 340 291 214 301 280 253 242 135 24
65 90 90 44 83 81 54 62 51 33 28 43 68 102 114 108 140 127 168 166 168 194 183 138 145 166 162 221 236 267 291 230 239 224 206 202 225 221
84 91 -5 87 68 57 82 92 81 52 50 53 91 128 161 156 136 147 138 148 152 175 155 140 184 173 155 150 233 274 168 169 200 143 190 184 156 287
93 -9 80 64 53 85 110 103 61 99 112 140 153 175 163 177 126 141 140 138 144 146 123 150 177 173 189 193 248 206 167 160 201 137 190 255 282 360
-5 78 73 70 99 118 141 146 159 168 164 178 180 201 115 91 130 133 127 123 119 77 106 140 150 160 144 163 201 284 188 107 142 152 184 214 248 331
80 63 83 101 122 139 150 149 144 160 124 156 193 201 108 70 82 76 87 51 39 49 58 118 183 130 99 82 102 138 153 131 44 59 145 186 293 437
43 74 93 102 128 147 144 136 152 156 152 158 179 191 178 116 44 60 27 19 33 37 48 75 104 98 80 63 68 110 115 112 125 124 112 86 76 272
78 91 104 132 160 164 158 162 172 185 183 177 187 197 174 135 102 70 3 4 5 6 9 34 49 63 77 69 61 94 111 123 110 105 145 165 124 106

GFSNE_con_3kmhel_027.txt.gz
Helicity
94 94 124 128 136 156 166 181 195 191 172 203 173 151 136 138 114 114 135 83 75 84 95 110 110 135 137 153 151 160 177 147 127 114 73 70 80 86
105 125 136 143 139 146 170 180 195 225 312 232 190 153 146 159 129 101 119 48 54 39 55 70 65 57 80 79 88 94 114 86 38 57 44 64 60 110
119 135 131 134 156 167 171 179 195 204 254 242 214 175 166 163 132 119 117 107 124 27 35 43 35 46 41 39 49 51 88 115 46 54 77 83 84 112
122 130 128 145 165 173 185 174 188 209 255 204 210 202 165 139 148 131 112 133 94 33 1 12 18 6 11 43 29 28 37 40 56 71 62 62 60 49
115 133 147 162 171 176 181 196 196 167 188 209 224 198 178 160 134 135 109 104 91 58 44 29 13 22 29 19 22 22 26 38 44 43 44 58 76 79
132 150 157 175 174 183 179 172 192 187 189 194 189 198 195 164 160 134 72 93 125 130 97 77 78 43 20 20 23 4 13 33 36 30 36 42 50 53
134 141 159 165 170 174 183 185 163 173 184 172 222 188 181 139 100 121 154 118 149 189 205 157 141 162 165 90 33 -7 -23 -28 -23 -33 -23 6 14 13
137 159 195 161 143 117 108 79 77 111 112 157 154 143 100 135 127 156 162 68 55 168 85 173 154 98 159 144 86 25 -16 -28 -36 -33 -26 -19 -21 30
165 188 180 158 128 135 91 55 79 132 113 131 147 147 119 152 110 28 88 138 215 236 160 192 178 185 183 162 75 50 11 -13 -38 -36 -30 -27 -2 55
184 165 147 131 112 85 107 131 86 98 115 123 112 133 120 49 24 57 98 164 261 246 183 231 220 224 190 210 157 92 36 -1 -37 -31 -9 -0 6 21
148 132 98 103 67 34 105 102 102 111 90 51 61 55 51 30 44 104 133 131 209 213 169 197 227 215 215 330 263 183 138 62 45 43 42 33 31 12
143 101 82 86 38 54 82 93 101 88 112 98 69 65 72 111 51 80 130 171 194 223 204 210 214 180 263 356 253 248 183 196 88 53 44 44 25 15
132 134 119 56 40 35 40 90 95 77 56 54 91 109 127 124 111 112 137 177 171 234 206 126 241 228 218 287 309 235 186 195 163 151 112 83 57 43
131 121 117 45 34 38 49 34 24 7 85 96 78 112 98 91 101 117 145 175 197 224 209 182 261 244 283 303 299 270 239 215 185 218 274 284 223 141
131 83 61 50 51 49 35 27 24 96 98 73 94 114 115 129 133 142 156 160 175 195 193 204 227 260 265 269 308 290 259 246 178 272 281 267 252 206
93 117 74 70 50 54 69 74 101 85 30 85 108 136 147 156 149 134 145 155 164 178 163 151 182 210 223 214 246 322 244 255 349 193 190 210 140 54
87 105 95 82 80 82 81 92 99 103 113 126 130 142 176 173 183 144 154 155 160 186 210 199 158 175 191 183 248 256 270 227 166 160 163 171 119 47
95 87 89 86 85 80 89 102 135 108 130 131 123 138 173 155 144 185 149 145 157 176 188 176 174 154 160 114 227 324 197 236 180 161 174 190 221 178
89 91 88 95 92 100 111 130 147 157 139 143 152 173 146 125 31 58 78 95 143 155 137 154 144 120 146 152 180 111 184 145 155 174 254 236 211 291
83 90 96 92 100 118 139 150 161 161 148 150 140 145 160 153 60 54 61 74 106 92 93 105 108 121 110 95 116 220 183 86 79 106 240 256 216 226
81 89 92 99 122 137 142 150 151 167 143 153 162 164 168 156 104 52 60 52 53 29 35 75 115 93 73 24 17 62 90 98 42 29 186 278 390 414
81 85 96 113 137 152 152 152 167 176 177 172 169 167 165 162 167 125 60 82 59 30 29 61 70 50 23 23 19 36 79 105 99 82 147 182 199 269
79 95 111 134 156 171 164 170 184 206 189 177 171 174 163 159 149 144 119 68 26 11 -0 25 32 15 28 33 14 41 78 112 145 129 140 239 235 250